TKY20 LGAV-EPKK

Flight info

Callsign TKY20
Flight time 1h 53m
Altitude 36000
Route KRO UT162 KOROS UN133 GIKAS DCT ATFIR DCT RUPUG DCT ETNOG DCT LENOV
Aircraft A320/M-SDE3FGHIRWY/LB1

Departure

Time 2026-05-07 12:13
Airport Athens Eleftherios Venizelos International Airport (LGAV)

Arrival

Time 2026-05-07 14:06
Airport Kraków John Paul II International Airport (EPKK)
Time Latitude Longitude Altitude Speed Heading
2026-05-07 11:49 37.93693 23.94924 302 ft 0 kts 306°
2026-05-07 12:04 37.93689 23.94932 301 ft 2 kts 306°
2026-05-07 12:04 37.93679 23.94949 302 ft 2 kts 306°
2026-05-07 12:04 37.93669 23.94967 301 ft 2 kts 306°
2026-05-07 12:04 37.93658 23.94985 301 ft 3 kts 320°
2026-05-07 12:05 37.93643 23.94996 301 ft 3 kts 356°
2026-05-07 12:05 37.93629 23.94995 300 ft 0 kts 25°
2026-05-07 12:07 37.93639 23.95002 300 ft 6 kts 25°
2026-05-07 12:07 37.93704 23.95060 303 ft 13 kts 43°
2026-05-07 12:08 37.93691 23.95154 301 ft 11 kts 124°
2026-05-07 12:08 37.93649 23.95231 300 ft 11 kts 116°
2026-05-07 12:08 37.93689 23.95319 300 ft 15 kts 36°
2026-05-07 12:08 37.93790 23.95409 300 ft 20 kts 34°
2026-05-07 12:09 37.93897 23.95514 298 ft 18 kts 37°
2026-05-07 12:09 37.93999 23.95612 300 ft 21 kts 37°
2026-05-07 12:09 37.94131 23.95739 297 ft 28 kts 36°
2026-05-07 12:09 37.94293 23.95892 300 ft 29 kts 37°
2026-05-07 12:10 37.94459 23.96048 299 ft 30 kts 37°
2026-05-07 12:10 37.94628 23.96210 300 ft 31 kts 37°
2026-05-07 12:10 37.94800 23.96373 300 ft 31 kts 37°
2026-05-07 12:10 37.94974 23.96539 303 ft 31 kts 36°
2026-05-07 12:11 37.95150 23.96707 302 ft 32 kts 36°
2026-05-07 12:11 37.95293 23.96846 303 ft 19 kts 52°
2026-05-07 12:11 37.95257 23.96965 307 ft 13 kts 127°
2026-05-07 12:11 37.95204 23.97034 311 ft 10 kts 166°
2026-05-07 12:12 37.95110 23.96946 309 ft 38 kts 217°
2026-05-07 12:12 37.94703 23.96559 299 ft 105 kts 217°
2026-05-07 12:12 37.93966 23.95857 281 ft 157 kts 217°
2026-05-07 12:12 37.93043 23.94999 805 ft 161 kts 213°
2026-05-07 12:13 37.92070 23.94304 1531 ft 160 kts 206°
2026-05-07 12:13 37.91078 23.93641 2150 ft 163 kts 208°
2026-05-07 12:13 37.90009 23.92933 2484 ft 185 kts 207°
2026-05-07 12:13 37.88802 23.92128 2795 ft 207 kts 208°
2026-05-07 12:14 37.87475 23.91223 3133 ft 228 kts 208°
2026-05-07 12:14 37.86005 23.90214 3568 ft 251 kts 209°
2026-05-07 12:14 37.84450 23.89142 4382 ft 258 kts 208°
2026-05-07 12:14 37.82980 23.87868 5208 ft 263 kts 227°
2026-05-07 12:15 37.82078 23.85854 6037 ft 268 kts 255°
2026-05-07 12:15 37.82029 23.83491 6877 ft 274 kts 283°
2026-05-07 12:15 37.82828 23.81305 7734 ft 278 kts 307°
2026-05-07 12:15 37.84288 23.79698 8577 ft 283 kts 331°
2026-05-07 12:16 37.86189 23.79010 9419 ft 288 kts 355°
2026-05-07 12:16 37.88207 23.78970 10241 ft 291 kts 358°
2026-05-07 12:16 37.90140 23.78967 10647 ft 308 kts 358°
2026-05-07 12:16 37.91216 23.78962 10746 ft 320 kts 358°
2026-05-07 12:17 37.93518 23.78956 10906 ft 341 kts 358°
2026-05-07 12:17 37.95944 23.78959 11414 ft 352 kts 358°
2026-05-07 12:17 37.98411 23.78962 12084 ft 357 kts 358°
2026-05-07 12:17 38.00875 23.78959 12804 ft 360 kts 357°
2026-05-07 12:18 38.03393 23.78950 13528 ft 363 kts 357°
2026-05-07 12:18 38.05936 23.78942 14193 ft 367 kts 356°
2026-05-07 12:18 38.08501 23.78933 14764 ft 370 kts 356°
2026-05-07 12:18 38.11093 23.78922 15344 ft 375 kts 356°
2026-05-07 12:19 38.13714 23.78909 15927 ft 379 kts 356°
2026-05-07 12:19 38.16367 23.78897 16477 ft 383 kts 356°
2026-05-07 12:19 38.19050 23.78884 17010 ft 387 kts 356°
2026-05-07 12:19 38.21759 23.78872 17573 ft 391 kts 356°
2026-05-07 12:20 38.24497 23.78861 18123 ft 396 kts 356°
2026-05-07 12:20 38.27265 23.78847 18642 ft 400 kts 356°
2026-05-07 12:20 38.30061 23.78830 19122 ft 403 kts 356°
2026-05-07 12:20 38.32875 23.78816 19654 ft 406 kts 356°
2026-05-07 12:21 38.35717 23.78803 20165 ft 409 kts 356°
2026-05-07 12:21 38.38532 23.78794 20663 ft 411 kts 356°
2026-05-07 12:21 38.41408 23.78787 21164 ft 414 kts 356°
2026-05-07 12:21 38.44304 23.78780 21650 ft 417 kts 356°
2026-05-07 12:22 38.47217 23.78769 22131 ft 420 kts 356°
2026-05-07 12:22 38.50146 23.78756 22599 ft 423 kts 356°
2026-05-07 12:22 38.53100 23.78739 23052 ft 425 kts 355°
2026-05-07 12:22 38.56068 23.78721 23503 ft 428 kts 355°
2026-05-07 12:23 38.59056 23.78705 23883 ft 431 kts 356°
2026-05-07 12:23 38.62065 23.78696 24244 ft 433 kts 356°
2026-05-07 12:23 38.65084 23.78689 24599 ft 435 kts 356°
2026-05-07 12:23 38.68117 23.78679 24972 ft 436 kts 356°
2026-05-07 12:24 38.71157 23.78667 25316 ft 438 kts 356°
2026-05-07 12:24 38.74220 23.78654 25639 ft 440 kts 356°
2026-05-07 12:24 38.76257 23.78647 25857 ft 441 kts 356°
2026-05-07 12:24 38.80378 23.78631 26285 ft 444 kts 356°
2026-05-07 12:25 38.83435 23.78619 26595 ft 446 kts 356°
2026-05-07 12:25 38.86547 23.78604 26900 ft 448 kts 356°
2026-05-07 12:25 38.89668 23.78586 27195 ft 450 kts 356°
2026-05-07 12:25 38.92806 23.78570 27492 ft 451 kts 356°
2026-05-07 12:26 38.95953 23.78555 27778 ft 453 kts 356°
2026-05-07 12:26 38.99110 23.78543 28055 ft 455 kts 357°
2026-05-07 12:26 39.02281 23.78533 28321 ft 457 kts 357°
2026-05-07 12:26 39.04429 23.78524 28495 ft 458 kts 357°
2026-05-07 12:27 39.07622 23.78511 28759 ft 460 kts 357°
2026-05-07 12:27 39.10783 23.78497 28974 ft 461 kts 357°
2026-05-07 12:27 39.13999 23.78483 29239 ft 463 kts 356°
2026-05-07 12:27 39.17225 23.78467 29461 ft 464 kts 356°
2026-05-07 12:28 39.20452 23.78449 29755 ft 464 kts 356°
2026-05-07 12:28 39.23676 23.78433 30094 ft 463 kts 356°
2026-05-07 12:28 39.26893 23.78420 30390 ft 462 kts 357°
2026-05-07 12:28 39.30103 23.78408 30670 ft 461 kts 357°
2026-05-07 12:29 39.33307 23.78396 30947 ft 460 kts 357°
2026-05-07 12:29 39.36504 23.78385 31212 ft 459 kts 357°
2026-05-07 12:29 39.39701 23.78370 31483 ft 458 kts 357°
2026-05-07 12:29 39.42886 23.78354 31757 ft 458 kts 357°
2026-05-07 12:30 39.46074 23.78340 32045 ft 457 kts 357°
2026-05-07 12:30 39.49250 23.78325 32307 ft 457 kts 357°
2026-05-07 12:30 39.52432 23.78310 32577 ft 456 kts 357°
2026-05-07 12:30 39.55608 23.78298 32857 ft 455 kts 357°
2026-05-07 12:31 39.58776 23.78288 33122 ft 455 kts 357°
2026-05-07 12:31 39.61895 23.78277 33380 ft 454 kts 357°
2026-05-07 12:31 39.65046 23.78263 33650 ft 453 kts 357°
2026-05-07 12:31 39.68200 23.78245 33913 ft 453 kts 357°
2026-05-07 12:32 39.71348 23.78228 34167 ft 452 kts 357°
2026-05-07 12:32 39.74492 23.78216 34394 ft 452 kts 357°
2026-05-07 12:32 39.77633 23.78205 34627 ft 451 kts 356°
2026-05-07 12:32 39.80773 23.78192 34833 ft 450 kts 356°
2026-05-07 12:33 39.87038 23.78165 35280 ft 449 kts 356°
2026-05-07 12:33 39.90163 23.78152 35483 ft 449 kts 356°
2026-05-07 12:33 39.93286 23.78136 35690 ft 448 kts 356°
2026-05-07 12:34 39.96403 23.78118 35882 ft 448 kts 356°
2026-05-07 12:34 39.99520 23.78102 36080 ft 447 kts 355°
2026-05-07 12:34 40.05719 23.78082 36142 ft 449 kts 355°
2026-05-07 12:35 40.11964 23.78057 36146 ft 449 kts 355°
2026-05-07 12:35 40.18212 23.78026 36142 ft 449 kts 355°
2026-05-07 12:36 40.24466 23.77995 36144 ft 449 kts 355°
2026-05-07 12:36 40.30723 23.77967 36148 ft 449 kts 355°
2026-05-07 12:37 40.36979 23.77939 36148 ft 450 kts 355°
2026-05-07 12:37 40.43197 23.77918 36147 ft 450 kts 356°
2026-05-07 12:38 40.49458 23.77892 36151 ft 450 kts 355°
2026-05-07 12:38 40.55720 23.77855 36151 ft 450 kts 355°
2026-05-07 12:39 40.61985 23.77830 36147 ft 450 kts 355°
2026-05-07 12:39 40.68257 23.77802 36143 ft 450 kts 355°
2026-05-07 12:40 40.74521 23.77776 36139 ft 450 kts 355°
2026-05-07 12:40 40.80793 23.77743 36139 ft 451 kts 355°
2026-05-07 12:41 40.87073 23.77709 36136 ft 451 kts 355°
2026-05-07 12:41 40.93362 23.77680 36139 ft 452 kts 356°
2026-05-07 12:42 40.99657 23.77656 36142 ft 452 kts 355°
2026-05-07 12:42 41.05910 23.77627 36141 ft 453 kts 356°
2026-05-07 12:43 41.12215 23.77603 36142 ft 453 kts 355°
2026-05-07 12:43 41.18524 23.77577 36142 ft 453 kts 355°
2026-05-07 12:44 41.24838 23.77546 36150 ft 453 kts 355°
2026-05-07 12:44 41.31114 23.77509 36160 ft 453 kts 355°
2026-05-07 12:45 41.37425 23.77488 36164 ft 453 kts 355°
2026-05-07 12:45 41.43629 23.76618 36164 ft 446 kts 345°
2026-05-07 12:46 41.49728 23.75067 36160 ft 446 kts 345°
2026-05-07 12:46 41.55828 23.73523 36160 ft 446 kts 345°
2026-05-07 12:47 41.61916 23.71981 36142 ft 446 kts 345°
2026-05-07 12:47 41.67981 23.70447 36137 ft 446 kts 345°
2026-05-07 12:48 41.74085 23.68897 36135 ft 446 kts 345°
2026-05-07 12:48 41.80193 23.67339 36140 ft 447 kts 345°
2026-05-07 12:49 41.86310 23.65780 36140 ft 447 kts 345°
2026-05-07 12:49 41.92434 23.64211 36139 ft 448 kts 345°
2026-05-07 12:50 41.98561 23.62642 36136 ft 448 kts 345°
2026-05-07 12:50 42.04686 23.61082 36133 ft 448 kts 345°
2026-05-07 12:51 42.10817 23.59506 36133 ft 448 kts 345°
2026-05-07 12:51 42.16911 23.57929 36135 ft 449 kts 345°
2026-05-07 12:52 42.23054 23.56340 36137 ft 449 kts 345°
2026-05-07 12:52 42.29191 23.54755 36133 ft 449 kts 345°
2026-05-07 12:53 42.35330 23.53163 36131 ft 449 kts 345°
2026-05-07 12:53 42.41464 23.51568 36122 ft 449 kts 345°
2026-05-07 12:54 42.47594 23.49973 36119 ft 449 kts 345°
2026-05-07 12:54 42.53687 23.48383 36113 ft 449 kts 345°
2026-05-07 12:55 42.59831 23.46787 36114 ft 449 kts 345°
2026-05-07 12:55 42.65966 23.45188 36114 ft 449 kts 345°
2026-05-07 12:56 42.72105 23.43582 36120 ft 449 kts 345°
2026-05-07 12:56 42.77195 23.42241 36123 ft 449 kts 345°
2026-05-07 12:57 42.84363 23.40352 36113 ft 449 kts 345°
2026-05-07 12:57 42.90493 23.38734 36105 ft 449 kts 345°
2026-05-07 12:58 42.94552 23.37660 36090 ft 449 kts 345°
2026-05-07 12:58 43.02769 23.35486 36078 ft 450 kts 345°
2026-05-07 12:59 43.07463 23.34241 36070 ft 450 kts 345°
2026-05-07 12:59 43.13621 23.32603 36065 ft 450 kts 345°
2026-05-07 13:00 43.19777 23.30969 36067 ft 451 kts 345°
2026-05-07 13:00 43.25937 23.29329 36062 ft 451 kts 345°
2026-05-07 13:01 43.29875 23.28278 36064 ft 451 kts 345°
2026-05-07 13:01 43.35805 23.26685 36064 ft 451 kts 345°
2026-05-07 13:02 43.41969 23.25030 36061 ft 451 kts 345°
2026-05-07 13:02 43.48133 23.23365 36055 ft 451 kts 345°
2026-05-07 13:03 43.54304 23.21706 36052 ft 452 kts 345°
2026-05-07 13:03 43.60478 23.20041 36055 ft 452 kts 345°
2026-05-07 13:04 43.66667 23.18368 36053 ft 453 kts 345°
2026-05-07 13:04 43.72814 23.16694 36048 ft 454 kts 345°
2026-05-07 13:05 43.79018 23.15009 36048 ft 454 kts 345°
2026-05-07 13:05 43.85225 23.13326 36046 ft 455 kts 345°
2026-05-07 13:06 43.91436 23.11628 36045 ft 455 kts 345°
2026-05-07 13:06 43.97657 23.09919 36049 ft 456 kts 345°
2026-05-07 13:07 44.03879 23.08211 36058 ft 456 kts 345°
2026-05-07 13:07 44.10109 23.06512 36065 ft 456 kts 345°
2026-05-07 13:08 44.16331 23.04797 36064 ft 456 kts 345°
2026-05-07 13:08 44.22553 23.03071 36065 ft 456 kts 345°
2026-05-07 13:09 44.28792 23.01350 36066 ft 456 kts 345°
2026-05-07 13:09 44.35018 22.99629 36067 ft 456 kts 345°
2026-05-07 13:10 44.41210 22.97909 36065 ft 457 kts 345°
2026-05-07 13:10 44.47449 22.96184 36065 ft 457 kts 345°
2026-05-07 13:11 44.53692 22.94444 36063 ft 458 kts 345°
2026-05-07 13:11 44.59628 22.92784 36059 ft 458 kts 345°
2026-05-07 13:12 44.65884 22.91025 36060 ft 458 kts 344°
2026-05-07 13:12 44.72142 22.89260 36060 ft 459 kts 344°
2026-05-07 13:13 44.78411 22.87501 36063 ft 459 kts 345°
2026-05-07 13:13 44.84683 22.85740 36064 ft 459 kts 344°
2026-05-07 13:14 44.90948 22.83970 36059 ft 459 kts 344°
2026-05-07 13:14 44.97213 22.82186 36072 ft 459 kts 344°
2026-05-07 13:15 45.03440 22.80422 36066 ft 460 kts 344°
2026-05-07 13:15 45.09719 22.78650 36064 ft 460 kts 344°
2026-05-07 13:16 45.16005 22.76856 36053 ft 460 kts 344°
2026-05-07 13:16 45.22290 22.75054 36055 ft 461 kts 344°
2026-05-07 13:17 45.27519 22.73557 36056 ft 461 kts 344°
2026-05-07 13:17 45.33803 22.71749 36050 ft 461 kts 344°
2026-05-07 13:18 45.40092 22.69941 36048 ft 461 kts 344°
2026-05-07 13:18 45.46394 22.68134 36055 ft 461 kts 344°
2026-05-07 13:19 45.52682 22.66327 36050 ft 460 kts 344°
2026-05-07 13:19 45.58959 22.64507 36042 ft 460 kts 343°
2026-05-07 13:20 45.65234 22.62680 36037 ft 459 kts 344°
2026-05-07 13:20 45.71498 22.60857 36035 ft 459 kts 344°
2026-05-07 13:21 45.77719 22.59043 36043 ft 459 kts 344°
2026-05-07 13:21 45.83980 22.57212 36035 ft 459 kts 344°
2026-05-07 13:22 45.90246 22.55378 36037 ft 459 kts 344°
2026-05-07 13:22 45.96506 22.53538 36038 ft 459 kts 344°
2026-05-07 13:23 46.02765 22.51687 36038 ft 459 kts 344°
2026-05-07 13:23 46.09028 22.49846 36040 ft 459 kts 344°
2026-05-07 13:24 46.15289 22.48001 36040 ft 459 kts 344°
2026-05-07 13:24 46.21557 22.46144 36043 ft 459 kts 344°
2026-05-07 13:25 46.27815 22.44284 36043 ft 459 kts 345°
2026-05-07 13:25 46.34083 22.42419 36038 ft 467 kts 345°
2026-05-07 13:26 46.40488 22.40503 36041 ft 473 kts 345°
2026-05-07 13:26 46.46954 22.38574 36041 ft 474 kts 345°
2026-05-07 13:27 46.53424 22.36637 36040 ft 475 kts 345°
2026-05-07 13:27 46.59897 22.34687 36043 ft 475 kts 345°
2026-05-07 13:28 46.66378 22.32728 36050 ft 476 kts 345°
2026-05-07 13:28 46.72863 22.30778 36054 ft 476 kts 345°
2026-05-07 13:29 46.79350 22.28821 36052 ft 476 kts 345°
2026-05-07 13:29 46.85841 22.26855 36060 ft 476 kts 345°
2026-05-07 13:30 46.92330 22.24861 36057 ft 476 kts 343°
2026-05-07 13:30 46.98704 22.22573 36038 ft 469 kts 341°
2026-05-07 13:31 47.04951 22.20132 36046 ft 462 kts 341°
2026-05-07 13:31 47.11164 22.17739 36044 ft 462 kts 341°
2026-05-07 13:32 47.17391 22.15401 36044 ft 462 kts 342°
2026-05-07 13:32 47.23623 22.13083 36039 ft 462 kts 342°
2026-05-07 13:33 47.29860 22.10745 36032 ft 462 kts 341°
2026-05-07 13:33 47.36087 22.08391 36022 ft 462 kts 341°
2026-05-07 13:34 47.45439 22.04847 36019 ft 463 kts 341°
2026-05-07 13:35 47.51689 22.02484 36018 ft 463 kts 341°
2026-05-07 13:35 47.57936 22.00105 36017 ft 464 kts 341°
2026-05-07 13:36 47.64187 21.97721 36014 ft 464 kts 341°
2026-05-07 13:36 47.70238 21.94703 36013 ft 461 kts 335°
2026-05-07 13:37 47.76245 21.91366 36014 ft 461 kts 335°
2026-05-07 13:37 47.82262 21.88009 36019 ft 462 kts 335°
2026-05-07 13:38 47.88276 21.84659 36026 ft 462 kts 335°
2026-05-07 13:38 47.94298 21.81299 36037 ft 462 kts 335°
2026-05-07 13:39 48.00331 21.77925 36040 ft 462 kts 335°
2026-05-07 13:39 48.06352 21.74549 36035 ft 462 kts 335°
2026-05-07 13:40 48.12381 21.71158 36030 ft 462 kts 335°
2026-05-07 13:40 48.18373 21.67777 36019 ft 463 kts 335°
2026-05-07 13:41 48.24399 21.64365 36008 ft 463 kts 334°
2026-05-07 13:41 48.30422 21.60943 35994 ft 463 kts 335°
2026-05-07 13:42 48.36445 21.57524 35985 ft 463 kts 335°
2026-05-07 13:42 48.42471 21.54088 35987 ft 463 kts 335°
2026-05-07 13:43 48.48495 21.50641 35987 ft 463 kts 335°
2026-05-07 13:43 48.54523 21.47198 35984 ft 463 kts 335°
2026-05-07 13:44 48.60545 21.43744 35979 ft 463 kts 334°
2026-05-07 13:44 48.66567 21.40275 35976 ft 463 kts 334°
2026-05-07 13:45 48.72589 21.36794 35978 ft 463 kts 334°
2026-05-07 13:45 48.78573 21.33330 35977 ft 464 kts 334°
2026-05-07 13:45 48.81596 21.31575 35780 ft 464 kts 334°
2026-05-07 13:46 48.84611 21.29818 35527 ft 464 kts 334°
2026-05-07 13:46 48.87627 21.28062 35278 ft 464 kts 334°
2026-05-07 13:46 48.90640 21.26310 35031 ft 464 kts 334°
2026-05-07 13:46 48.93658 21.24551 34307 ft 467 kts 334°
2026-05-07 13:47 48.96710 21.22765 33263 ft 471 kts 334°
2026-05-07 13:47 48.99778 21.20970 32247 ft 473 kts 334°
2026-05-07 13:47 49.02873 21.19156 31216 ft 476 kts 334°
2026-05-07 13:47 49.05972 21.17339 30121 ft 480 kts 335°
2026-05-07 13:48 49.09105 21.15503 29012 ft 481 kts 335°
2026-05-07 13:48 49.12190 21.13697 28518 ft 470 kts 335°
2026-05-07 13:48 49.15227 21.11916 27764 ft 466 kts 335°
2026-05-07 13:48 49.18241 21.10145 27077 ft 461 kts 335°
2026-05-07 13:49 49.21181 21.08412 26393 ft 458 kts 335°
2026-05-07 13:49 49.24136 21.06667 25726 ft 454 kts 335°
2026-05-07 13:49 49.27072 21.04929 25053 ft 451 kts 335°
2026-05-07 13:49 49.29979 21.03163 24374 ft 447 kts 332°
2026-05-07 13:50 49.32680 21.00900 23736 ft 440 kts 322°
2026-05-07 13:50 49.35068 20.98035 23078 ft 432 kts 313°
2026-05-07 13:50 49.37091 20.94712 22518 ft 422 kts 306°
2026-05-07 13:50 49.38965 20.91282 21976 ft 418 kts 306°
2026-05-07 13:51 49.40827 20.87889 21459 ft 412 kts 306°
2026-05-07 13:51 49.42669 20.84537 20961 ft 407 kts 306°
2026-05-07 13:51 49.44489 20.81224 20485 ft 403 kts 306°
2026-05-07 13:51 49.46286 20.77949 20014 ft 398 kts 306°
2026-05-07 13:52 49.48057 20.74707 19564 ft 393 kts 306°
2026-05-07 13:52 49.49802 20.71495 19111 ft 390 kts 306°
2026-05-07 13:52 49.51530 20.68304 18657 ft 386 kts 306°
2026-05-07 13:52 49.52634 20.66267 18355 ft 385 kts 306°
2026-05-07 13:53 49.54341 20.63116 17863 ft 381 kts 306°
2026-05-07 13:53 49.56031 20.59997 17379 ft 377 kts 306°
2026-05-07 13:53 49.57681 20.56949 16922 ft 373 kts 306°
2026-05-07 13:53 49.59350 20.53859 16233 ft 379 kts 306°
2026-05-07 13:54 49.61042 20.50718 15537 ft 381 kts 307°
2026-05-07 13:54 49.62744 20.47561 14851 ft 383 kts 307°
2026-05-07 13:54 49.64678 20.44733 14330 ft 386 kts 322°
2026-05-07 13:54 49.67081 20.42889 13790 ft 388 kts 339°
2026-05-07 13:55 49.69651 20.41631 13191 ft 386 kts 340°
2026-05-07 13:55 49.72206 20.40410 12640 ft 382 kts 341°
2026-05-07 13:55 49.74735 20.39212 12069 ft 379 kts 341°
2026-05-07 13:55 49.77247 20.38021 11511 ft 376 kts 341°
2026-05-07 13:56 49.79734 20.36834 10937 ft 373 kts 341°
2026-05-07 13:56 49.82194 20.35656 10555 ft 364 kts 341°
2026-05-07 13:56 49.84567 20.34519 10435 ft 349 kts 340°
2026-05-07 13:56 49.86842 20.33429 10310 ft 335 kts 340°
2026-05-07 13:57 49.88300 20.32729 10227 ft 327 kts 340°
2026-05-07 13:57 49.89883 20.31994 10152 ft 319 kts 341°
2026-05-07 13:57 49.91967 20.31008 10026 ft 308 kts 340°
2026-05-07 13:57 49.93991 20.30026 9773 ft 303 kts 340°
2026-05-07 13:58 49.96004 20.29040 9294 ft 301 kts 340°
2026-05-07 13:58 49.97987 20.28068 8804 ft 297 kts 340°
2026-05-07 13:58 49.99946 20.27107 8298 ft 294 kts 340°
2026-05-07 13:58 50.01826 20.26192 8146 ft 273 kts 340°
2026-05-07 13:59 50.03594 20.25337 7807 ft 261 kts 339°
2026-05-07 13:59 50.05313 20.24540 7368 ft 255 kts 345°
2026-05-07 13:59 50.07039 20.24000 7149 ft 253 kts 345°
2026-05-07 13:59 50.08736 20.23444 6850 ft 252 kts 345°
2026-05-07 14:00 50.10459 20.22869 6474 ft 252 kts 343°
2026-05-07 14:00 50.12005 20.21774 6187 ft 240 kts 315°
2026-05-07 14:00 50.12940 20.19725 5865 ft 230 kts 286°
2026-05-07 14:00 50.13102 20.17311 5545 ft 223 kts 259°
2026-05-07 14:01 50.12787 20.14961 5240 ft 220 kts 257°
2026-05-07 14:01 50.12468 20.12643 4927 ft 217 kts 257°
2026-05-07 14:01 50.12155 20.10351 4628 ft 215 kts 258°
2026-05-07 14:01 50.11845 20.08078 4324 ft 213 kts 257°
2026-05-07 14:02 50.11537 20.05828 4058 ft 211 kts 258°
2026-05-07 14:02 50.11232 20.03595 3788 ft 210 kts 257°
2026-05-07 14:02 50.10927 20.01371 3511 ft 209 kts 257°
2026-05-07 14:02 50.10623 19.99158 3237 ft 208 kts 258°
2026-05-07 14:03 50.10327 19.97007 2968 ft 198 kts 257°
2026-05-07 14:03 50.10049 19.94976 2751 ft 186 kts 258°
2026-05-07 14:03 50.09786 19.93057 2477 ft 176 kts 257°
2026-05-07 14:03 50.09539 19.91266 2251 ft 163 kts 257°
2026-05-07 14:04 50.09313 19.89632 2055 ft 149 kts 258°
2026-05-07 14:04 50.09104 19.88116 1862 ft 140 kts 258°
2026-05-07 14:04 50.08898 19.86632 1655 ft 138 kts 256°
2026-05-07 14:04 50.08695 19.85163 1478 ft 140 kts 256°
2026-05-07 14:05 50.08492 19.83700 1267 ft 139 kts 257°
2026-05-07 14:05 50.08293 19.82246 1057 ft 137 kts 257°
2026-05-07 14:05 50.08096 19.80793 906 ft 137 kts 258°
2026-05-07 14:05 50.07964 19.79834 822 ft 136 kts 258°
2026-05-07 14:06 50.07780 19.78511 792 ft 104 kts 258°
2026-05-07 14:06 50.07662 19.77670 790 ft 55 kts 258°
2026-05-07 14:06 50.07595 19.77189 795 ft 40 kts 258°
2026-05-07 14:06 50.07510 19.76850 797 ft 31 kts 205°
2026-05-07 14:07 50.07360 19.76896 791 ft 19 kts 166°
2026-05-07 14:07 50.07312 19.76997 790 ft 8 kts 60°
2026-05-07 14:07 50.07322 19.77070 790 ft 6 kts 81°
2026-05-07 14:07 50.07331 19.77137 790 ft 9 kts 77°
2026-05-07 14:08 50.07355 19.77309 790 ft 24 kts 77°
2026-05-07 14:08 50.07396 19.77602 790 ft 29 kts 78°
2026-05-07 14:08 50.07440 19.77915 790 ft 27 kts 77°
2026-05-07 14:08 50.07481 19.78210 790 ft 29 kts 78°
2026-05-07 14:09 50.07524 19.78521 790 ft 30 kts 78°
2026-05-07 14:09 50.07569 19.78846 790 ft 31 kts 77°
2026-05-07 14:09 50.07616 19.79184 790 ft 33 kts 77°
2026-05-07 14:09 50.07665 19.79531 790 ft 28 kts 77°
2026-05-07 14:10 50.07703 19.79799 790 ft 24 kts 78°
2026-05-07 14:10 50.07673 19.79892 790 ft 4 kts 191°
2026-05-07 14:10 50.07629 19.79903 790 ft 11 kts 172°
2026-05-07 14:10 50.07519 19.79933 790 ft 20 kts 167°
2026-05-07 14:11 50.07380 19.79984 790 ft 21 kts 166°
2026-05-07 14:11 50.07304 19.80010 790 ft 0 kts 168°